Date String (YYYY-MM-DD hh:mm:ss) UTC,Instrument flags,absolute air pressure of the measurement (hPa),sample flow rate (lpm),inlet stack bypass flow (lpm),air temperature of the measurement (°C),ambient temperature measured by the external sensor (°C),aerosol sample conditioner tube jacket temperature (°C),OPC LED temperature (°C),internal box temperature (°C),relative humidity of the measurement (%),span deviation,mass concentration of particles derived from Lorenz-Mie calculation of OPC scattering (μg/m³),mass concentration of particles derived from Lorenz-Mie calculation of OPC scattering (μg/m³),mass concentration of particles derived from Lorenz-Mie calculation of OPC scattering (μg/m³)
DateTimeUTC,F1_M11,P_M11,Q1_M11,Q2_M11,T1_M11,T2_M11,T3_M11,T4_M11,T5_M11,U1_M11,ZSPAN_M11,X0_M11,X2_M11,X1_M11
2024-01-06 04:00:00,SystemResetWarning,0823.4,5.00,000.00,021.7,021.0,000.0,030.1,023.0,9.4,0000.0,0005.41,0001.77,0001.31
2024-01-06 04:01:00,SystemResetWarning,0823.4,5.00,000.00,021.7,021.0,000.0,030.1,023.0,9.4,0000.0,0005.47,0001.90,0001.40
2024-01-06 04:02:00,SystemResetWarning,0823.5,5.00,000.00,021.7,021.0,000.0,030.1,022.9,9.4,0000.0,0005.05,0002.03,0001.52
2024-01-06 04:03:00,SystemResetWarning,0823.4,5.01,000.00,021.7,021.0,000.0,030.0,022.9,9.5,0000.0,0004.89,0002.30,0001.68
2024-01-06 04:04:00,SystemResetWarning,0823.4,5.00,000.00,021.7,020.9,000.0,030.0,022.9,9.5,0000.0,0005.15,0002.56,0001.89
2024-01-06 04:05:00,SystemResetWarning,0823.4,5.00,000.00,021.7,020.9,000.0,030.0,022.9,9.5,0000.0,0005.87,0002.79,0002.11
2024-01-06 04:06:00,SystemResetWarning,0823.4,5.00,000.00,021.7,020.9,000.0,030.0,022.9,9.4,0000.0,0005.98,0003.03,0002.35
2024-01-06 04:07:00,SystemResetWarning,0823.4,5.00,000.00,021.7,020.9,000.0,030.0,022.8,9.4,0000.0,0006.61,0003.24,0002.59
2024-01-06 04:08:00,SystemResetWarning,0823.5,5.00,000.00,021.6,020.8,000.0,030.0,022.8,9.4,0000.0,0007.31,0003.43,0002.86
2024-01-06 04:09:00,SystemResetWarning,0823.5,5.00,000.00,021.6,020.8,000.0,030.0,022.8,9.4,0000.0,0007.48,0003.60,0003.10
2024-01-06 04:10:00,SystemResetWarning,0823.5,5.00,000.00,021.6,020.8,000.0,030.0,022.7,9.4,0000.0,0007.65,0003.73,0003.25
2024-01-06 04:11:00,SystemResetWarning,0823.5,5.01,000.00,021.6,020.8,000.0,030.0,022.8,9.3,0000.0,0007.89,0003.87,0003.38
2024-01-06 04:12:00,SystemResetWarning,0823.5,5.01,000.00,021.6,020.8,000.0,030.0,022.7,9.3,0000.0,0008.25,0004.00,0003.49
2024-01-06 04:13:00,SystemResetWarning,0823.5,5.00,000.00,021.6,020.7,000.0,030.0,022.7,9.3,0000.0,0008.73,0004.07,0003.59
2024-01-06 04:14:00,SystemResetWarning,0823.6,5.01,000.00,021.6,020.7,000.0,030.0,022.7,9.3,0000.0,0008.82,0004.11,0003.67
2024-01-06 04:15:00,SystemResetWarning,0823.6,5.00,000.00,021.6,020.7,000.0,030.0,022.8,9.3,0000.0,0008.92,0004.16,0003.73
2024-01-06 04:16:00,SystemResetWarning,0823.5,4.99,000.00,021.6,020.7,000.0,029.9,022.8,9.3,0000.0,0008.64,0004.23,0003.77
2024-01-06 04:17:00,SystemResetWarning,0823.5,5.00,000.00,021.5,020.8,000.0,029.9,022.8,9.3,0000.0,0008.34,0004.24,0003.79
2024-01-06 04:18:00,SystemResetWarning,0823.5,5.00,000.00,021.5,020.8,000.0,029.9,022.8,9.3,0000.0,0008.20,0004.22,0003.79
2024-01-06 04:19:00,SystemResetWarning,0823.5,5.00,000.00,021.5,020.8,000.0,029.9,022.7,9.2,0000.0,0008.00,0004.21,0003.79
2024-01-06 04:20:00,SystemResetWarning,0823.6,5.00,000.00,021.5,020.8,000.0,029.9,022.7,9.2,0000.0,0008.37,0004.17,0003.77
2024-01-06 04:21:00,SystemResetWarning,0823.5,5.01,000.00,021.5,020.8,000.0,029.9,022.7,9.2,0000.0,0008.61,0004.14,0003.75
2024-01-06 04:22:00,SystemResetWarning,0823.6,5.01,000.00,021.5,020.8,000.0,029.9,022.7,9.2,0000.0,0008.43,0004.10,0003.72
2024-01-06 04:23:00,SystemResetWarning,0823.6,5.00,000.00,021.5,020.7,000.0,029.9,022.6,9.2,0000.0,0008.14,0004.08,0003.69
2024-01-06 04:24:00,SystemResetWarning,0823.6,5.00,000.00,021.4,020.6,000.0,029.9,022.6,9.2,0000.0,0007.86,0004.05,0003.65
2024-01-06 04:25:00,SystemResetWarning,0823.6,4.99,000.00,021.4,020.6,000.0,029.9,022.6,9.2,0000.0,0008.28,0004.01,0003.61
2024-01-06 04:26:00,SystemResetWarning,0823.6,5.00,000.00,021.4,020.6,000.0,029.8,022.6,9.2,0000.0,0008.19,0003.96,0003.56
2024-01-06 04:27:00,SystemResetWarning,0823.6,4.99,000.00,021.4,020.6,000.0,029.8,022.7,9.2,0000.0,0008.15,0003.91,0003.52
2024-01-06 04:28:00,SystemResetWarning,0823.7,5.00,000.00,021.4,020.6,000.0,029.8,022.6,9.2,0000.0,0008.23,0003.91,0003.49
2024-01-06 04:29:00,SystemResetWarning,0823.6,5.01,000.00,021.4,020.6,000.0,029.8,022.6,9.2,0000.0,0008.21,0003.89,0003.46
2024-01-06 04:30:00,SystemResetWarning,0823.7,5.01,000.00,021.4,020.6,000.0,029.8,022.7,9.2,0000.0,0008.10,0003.84,0003.43
2024-01-06 04:31:00,SystemResetWarning,0823.7,4.99,000.00,021.4,020.6,000.0,029.8,022.6,9.2,0000.0,0007.65,0003.81,0003.42
2024-01-06 04:32:00,SystemResetWarning,0823.6,5.00,000.00,021.4,020.6,000.0,029.8,022.6,9.1,0000.0,0007.30,0003.78,0003.40
2024-01-06 04:33:00,SystemResetWarning,0823.7,5.00,000.00,021.4,020.6,000.0,029.8,022.6,9.1,0000.0,0007.36,0003.76,0003.39
2024-01-06 04:34:00,SystemResetWarning,0823.7,5.00,000.00,021.4,020.7,000.0,029.8,022.7,9.1,0000.0,0007.61,0003.75,0003.39
2024-01-06 04:35:00,SystemResetWarning,0823.7,5.00,000.00,021.4,020.7,000.0,029.8,022.7,9.1,0000.0,0007.78,0003.76,0003.40
2024-01-06 04:36:00,SystemResetWarning,0823.7,4.99,000.00,021.4,020.7,000.0,029.8,022.7,9.1,0000.0,0007.47,0003.77,0003.41
2024-01-06 04:37:00,SystemResetWarning,0823.8,4.99,000.00,021.4,020.7,000.0,029.8,022.7,9.1,0000.0,0007.42,0003.76,0003.44
2024-01-06 04:38:00,SystemResetWarning,0823.7,5.00,000.00,021.4,020.7,000.0,029.8,022.7,9.1,0000.0,0007.38,0003.80,0003.48
2024-01-06 04:39:00,SystemResetWarning,0823.7,5.00,000.00,021.4,020.7,000.0,029.8,022.6,9.1,0000.0,0007.54,0003.85,0003.53
2024-01-06 04:40:00,SystemResetWarning,0823.7,5.00,000.00,021.4,020.7,000.0,029.8,022.6,9.1,0000.0,0007.81,0003.95,0003.60
2024-01-06 04:41:00,SystemResetWarning,0823.7,5.00,000.00,021.4,020.7,000.0,029.8,022.6,9.1,0000.0,0007.88,0004.02,0003.67
2024-01-06 04:42:00,SystemResetWarning,0823.7,5.00,000.00,021.4,020.6,000.0,029.7,022.5,9.1,0000.0,0007.89,0004.05,0003.71
2024-01-06 04:43:00,SystemResetWarning,0823.7,5.00,000.00,021.4,020.6,000.0,029.7,022.5,9.1,0000.0,0007.99,0004.10,0003.74
2024-01-06 04:44:00,SystemResetWarning,0823.7,5.00,000.00,021.3,020.5,000.0,029.7,022.4,9.1,0000.0,0008.14,0004.16,0003.78
2024-01-06 04:45:00,SystemResetWarning,0823.6,5.00,000.00,021.3,020.5,000.0,029.7,022.4,9.2,0000.0,0008.50,0004.17,0003.81
2024-01-06 04:46:00,SystemResetWarning,0823.6,5.00,000.00,021.3,020.5,000.0,029.7,022.4,9.2,0000.0,0008.19,0004.18,0003.82
2024-01-06 04:47:00,SystemResetWarning,0823.6,5.00,000.00,021.3,020.5,000.0,029.7,022.5,9.2,0000.0,0007.96,0004.19,0003.82
2024-01-06 04:48:00,SystemResetWarning,0823.6,5.00,000.00,021.3,020.5,000.0,029.7,022.4,9.3,0000.0,0008.10,0004.21,0003.80
2024-01-06 04:49:00,SystemResetWarning,0823.6,5.00,000.00,021.3,020.5,000.0,029.7,022.4,9.3,0000.0,0008.04,0004.16,0003.76
2024-01-06 04:50:00,SystemResetWarning,0823.6,5.00,000.00,021.3,020.5,000.0,029.7,022.4,9.3,0000.0,0007.88,0004.09,0003.71
2024-01-06 04:51:00,SystemResetWarning,0823.6,5.00,000.00,021.2,020.4,000.0,029.7,022.4,9.4,0000.0,0007.52,0003.97,0003.65
2024-01-06 04:52:00,SystemResetWarning,0823.6,5.00,000.00,021.2,020.5,000.0,029.6,022.4,9.4,0000.0,0007.44,0003.89,0003.58
2024-01-06 04:53:00,SystemResetWarning,0823.6,5.00,000.00,021.2,020.4,000.0,029.6,022.4,9.4,0000.0,0007.54,0003.87,0003.53
2024-01-06 04:54:00,SystemResetWarning,0823.6,5.01,000.00,021.2,020.4,000.0,029.6,022.4,9.4,0000.0,0007.54,0003.82,0003.49
2024-01-06 04:55:00,SystemResetWarning,0823.6,5.00,000.00,021.2,020.4,000.0,029.6,022.4,9.4,0000.0,0007.42,0003.75,0003.45
2024-01-06 04:56:00,SystemResetWarning,0823.6,5.00,000.00,021.2,020.4,000.0,029.6,022.4,9.4,0000.0,0006.34,0003.72,0003.40
2024-01-06 04:57:00,SystemResetWarning,0823.6,5.00,000.00,021.2,020.4,000.0,029.6,022.4,9.4,0000.0,0006.14,0003.69,0003.37
2024-01-06 04:58:00,SystemResetWarning,0823.6,5.00,000.00,021.2,020.5,000.0,029.6,022.4,9.4,0000.0,0006.08,0003.65,0003.34
2024-01-06 04:59:00,SystemResetWarning,0823.6,4.99,000.00,021.2,020.4,000.0,029.6,022.4,9.4,0000.0,0007.19,0003.60,0003.32
